User: anonymous   Login
Location: Unspecified
(0.0000°N, 0.0000°E)
Time: 03:51:43
(UTC+02:00)
Language:

Orbus 21S - Orbit

View from above orbital plane
View from above orbital plane
View from above satellite
View from above satellite

Ground track
Ground track

The orbit data is extracted from the following two-line orbital elements,

1 20669U 90056C   16238.09927814  .00000270  00000-0  11818-3 0  9994
2 20669  24.1464 211.7617 7095567 168.8580 224.9504  2.47496170220062
Epoch (UTC): 25 August 2016 02:22:57
Eccentricity: 0.7095567
inclination: 24.1464°
perigee height: 327 km
apogee height: 33089 km
right ascension of ascending node: 211.7617°
argument of perigee: 168.8580°
revolutions per day: 2.47496170
mean anomaly at epoch: 224.9504°
orbit number at epoch: 22006

The dashed part of the orbit path shows where the satellite is in the earth's shadow,  

DLR